sat.trackr.live / text

‹ back to catalog

STARLINK-11545 [DTC]

NORAD 63016 · 2025-032M

PAYLOAD ACTIVE UNKNOWN

§ Identity

Operator
Country
US
Launch date
2025-02-15
Launch site
AFETR
Launch vehicle
Mass (kg)
RCS (m²)

Purposes: comms

External: N2YO · Heavens-Above · Gunter

§ Orbital elements

Epoch: 2026-09-21T21:31:01.875936Z

Period
91.66 min
Inclination
43.0027°
Eccentricity
0.0005244
Mean motion
15.70951257 rev/d
Perigee alt
352.6 km
Apogee alt
359.7 km
Semi-major
6,734.3 km
B*
1.1063e-3
RAAN
92.5229°
Arg perigee
249.7746°
Mean anomaly
110.2558°
Rev number
9,308

§ Raw data

STARLINK-11545 [DTC]1 63016U 25032M   26264.89654949  .00144757  00000+0  11063-2 0  99922 63016  43.0027  92.5229 0005244 249.7746 110.2558 15.70951257 93081

JSON: /api/v1/satellites/63016 · /tle

For live sub-satellite position, see the globe view (requires WebGL).

§ Visibility from observer

Set your observer location to see the next 7 days of passes ≥ 10°. The values pass through the URL so the page stays shareable.

No JS? Fill the form by hand. The geolocation button needs JavaScript.